Regional Weather Roundup
Issued by NWS

Home | Current Version | Previous Version | Text Only | Print | Product List | Glossary On
Versions: 1 2 3 4 5 6 7 8 9 10 11 12 13 14 15 16 17 18 19 20 21 22 23 24 25 26 27 28 29 30 31 32 33 34 35 36 37 38 39 40 41 42 43 44 45 46 47 48 49 50
000
ASUS43 KDTX 241010
RWRMI
MICHIGAN HOURLY REGIONAL WEATHER ROUNDUP
NATIONAL WEATHER SERVICE DETROIT/PONTIAC MI
600 AM EDT THU APR 24 2014

NOTE: "FAIR" INDICATES FEW OR NO CLOUDS BELOW 12,000 FEET WITH NO
SIGNIFICANT WEATHER AND/OR OBSTRUCTION TO VISIBILITY.

MIZ047>049-052>055-059>063-066>070-074>076-081>083-241100-
SOUTHEAST LOWER MICHIGAN

CITY           SKY/WX    TMP DP  RH WIND       PRES   REMARKS
ADRIAN         CLOUDY    43  35  73 E8        30.15R
ALMA           CLOUDY    37  27  69 E3        30.15R
ANN ARBOR      CLOUDY    41  21  44 E3        30.15R
BAD AXE        MOCLDY    28  24  85 CALM      30.17S
CARO           CLOUDY    32  29  86 CALM      30.15F
DETROIT CITY   PTCLDY    39  21  48 NE3       30.16S
DETROIT        CLOUDY    41  18  39 CALM      30.17R
FLINT          CLOUDY    38  21  50 CALM      30.16R
GROSSE ILE     MOCLDY    39   3  22 CALM      30.15S
HILLSDALE      CLOUDY    45  29  55 SE5       30.12R
HOWELL         CLOUDY    38  19  44 SE5       30.15R WCI  35

CITY           SKY/WX    TMP DP  RH WIND       PRES   REMARKS
JACKSON        CLOUDY    43  32  65 E6        30.13R
LAMBERTVILLE   CLOUDY    45  28  53 SE5       30.15R
LANSING        CLOUDY    42  28  57 SE8       30.14R
LAPEER         FAIR      31  26  81 CALM      30.16S
MASON          CLOUDY    41  29  61 E7        30.13S
MONROE         CLOUDY    43  27  52 NE5       30.14R
MT. CLEMENS    MOCLDY    32  24  70 NW2       30.15S
PONTIAC        CLOUDY    37  17  44 CALM      30.14R
PORT HOPE        N/A     31  24  75 CALM      30.15S
PORT HURON     PTCLDY    28  27  93 CALM      30.16S
TRI CITIES     CLOUDY    37  27  67 CALM      30.16S
TROY           PTCLDY    37  17  45 CALM      30.17R
SAGINAW HB     CLOUDY    36  27  69 CALM      30.16R
YPSILANTI      CLOUDY    43  27  53 CALM      30.16R
$$
MIZ043>046-050>051-056>058-064>065-071>073-077>080-241100-
SOUTHWEST LOWER MICHIGAN

CITY           SKY/WX    TMP DP  RH WIND       PRES   REMARKS
BATTLE CREEK   CLOUDY    47  27  45 E5        30.11R
BENTON HARBOR  CLOUDY    45  33  63 E6        30.08S
BIG RAPIDS     CLOUDY    39  21  48 E3        30.12S
COLDWATER      CLOUDY    45  31  58 SE3       30.11R
FREMONT        CLOUDY    41  22  47 E8        30.10S
HOLLAND        CLOUDY    46  31  55 E8        30.10F
GRAND RAPIDS   CLOUDY    43  31  62 E6        30.12R
IONIA          CLOUDY    40  31  71 E3        30.12R
KALAMAZOO      CLOUDY    47  29  49 SE3       30.10S
LUDINGTON      CLOUDY    40  25  54 E6        30.10F
MARSHALL       CLOUDY    44  32  62 E5        30.11S
MOUNT PLEASANT CLOUDY    35  26  67 CALM      30.15R
MUSKEGON       CLOUDY    45  27  49 E6        30.10F
SOUTH HAVEN    CLOUDY    46  31  56 E3        30.08F
$$
MIZ016>042-241100-
NORTHERN LOWER MICHIGAN

CITY           SKY/WX    TMP DP  RH WIND       PRES   REMARKS
ALPENA         CLOUDY    30  25  81 CALM      30.16S
BEAVER ISLAND  CLOUDY    31  26  84 CALM      30.15S
BELLAIRE       CLOUDY    32  28  83 CALM      30.15S
CADILLAC       CLOUDY    36  20  51 E3        30.12R
CHARLEVOIX     CLOUDY    34  21  60 SE5       30.18S WCI  30
FRANKFORT      CLOUDY    40  20  45 CALM      30.12R
GAYLORD        CLOUDY    31  23  72 CALM      30.13S
GRAYLING       CLOUDY    28  24  84 CALM      30.15R
HARBOR SPRINGS CLOUDY    31  23  70 CALM      30.15S
HOUGHTON LAKE  CLOUDY    32  28  85 E3        30.14S
MANISTEE       CLOUDY    39  21  48 E8        30.12S WCI  34
OSCODA         MOCLDY    30  21  68 CALM      30.15S
PELLSTON       CLOUDY    29  24  82 CALM      30.16S
ROGERS CITY    CLOUDY    30  26  85 CALM      30.17S
TRAVERSE CITY  CLOUDY    34  28  79 CALM      30.12F
$$
MIZ007>008-015-241100-
EASTERN UPPER MICHIGAN

CITY           SKY/WX    TMP DP  RH WIND       PRES   REMARKS
KINROSS        CLOUDY    28  28 100 CALM      30.15S
MACKINAC ISLAN CLOUDY    32  25  74 NE5       30.15S WCI  28
NEWBERRY       CLOUDY    32  23  70 SW6       30.14S WCI  26
S. S. MARIE    MOCLDY    30  25  81 CALM      30.15R
MUNISING         N/A     36  23  59 CALM      30.13R
$$
MIZ004>006-011>014-085-241100-
CENTRAL UPPER MICHIGAN

CITY           SKY/WX    TMP DP  RH WIND       PRES   REMARKS
MANISTIQUE     CLOUDY    32  25  76 S6        30.14S WCI  26
ESCANABA       CLOUDY    34  25  69 E5        30.12S WCI  30
MENOMINEE      CLOUDY    37  21  52 CALM      30.11R
SAWYER-GWINN   CLOUDY    36  22  58 CALM      30.09F
$$
MIZ001>003-009>011-084-241100-
WESTERN UPPER MICHIGAN

CITY           SKY/WX    TMP DP  RH WIND       PRES   REMARKS
IRON MOUNTAIN  CLOUDY    35  21  56 CALM      30.08S
HOUGHTON       CLOUDY    38  21  50 SE6       30.06S WCI  33
COPPER HARBOR    N/A     37  24  59 CALM      30.09R
IRONWOOD       CLOUDY    37  30  75 SE13G18   30.00S WCI  29
$$

ABBREVIATIONS USED IN REMARKS
   TC - TEMPERATURE IN CELSIUS
  WCI - WIND CHILL INDEX
   HX - HEAT INDEX
  VSB - VISIBILITY




USA.gov is the U.S. government's official web portal to all federal, state and local government web resources and services.